Dewpoint
-4 -2 -1 -1 -1 -1 -0 1 1 1 2 6 10 12 8 2 7 9 9 14 14 13 13 12 11 11 11 10 10 9 7 7 6 5 5 5 6 1 -2 -4 -3 -6 -9
-3 -3 -3 -1 -2 -3 -2 -0 1 1 1 0 3 9 8 2 1 5 8 9 10 12 13 12 11 11 11 11 11 9 7 7 8 7 6 4 3 5 -1 -5 -4 -5 -7
-4 -2 -1 1 1 -1 -4 -4 -3 -1 0 1 1 3 9 12 11 6 6 7 10 11 13 12 12 12 11 11 11 9 7 6 8 8 7 5 3 1 1 -4 -4 -5 -5
-1 0 1 2 2 0 -4 -4 -4 -4 -4 -2 0 2 6 10 12 12 11 10 8 7 12 12 12 12 12 11 10 9 8 7 8 9 8 7 3 0 -1 -2 -4 -5 -5
0 1 3 3 3 1 -2 -3 -4 -4 -4 -5 -4 -2 1 6 10 11 11 11 11 7 5 11 13 12 10 11 10 10 9 8 7 10 8 8 7 5 1 -1 -2 -4 -5
0 2 3 4 3 4 1 -0 -1 -1 -3 -4 -3 -3 -1 6 8 10 10 10 11 11 10 8 12 13 11 10 9 10 10 9 8 10 9 8 8 8 5 1 -1 -2 -2
0 2 3 4 4 4 2 2 2 2 2 1 -0 2 0 1 6 8 9 10 11 11 10 9 11 13 12 12 11 11 10 10 9 10 9 9 9 9 8 4 -0 -2 -2
1 3 4 4 4 4 4 3 3 3 4 4 3 2 3 3 3 1 4 9 10 10 10 10 7 10 11 11 11 11 10 10 10 10 10 9 9 9 9 9 4 -2 -3
2 3 3 3 3 4 4 3 3 3 4 4 3 4 4 4 4 2 4 6 8 9 9 10 10 7 8 10 10 10 10 10 10 10 10 9 9 9 9 8 3 -2 -3
3 3 3 2 3 4 4 4 4 3 3 2 3 4 4 4 3 1 1 3 5 4 9 9 10 9 10 10 10 10 10 9 9 9 9 9 8 8 6 2 -1 -0 -2
3 3 2 2 3 3 3 3 3 2 1 1 1 3 4 4 3 0 -0 -1 -3 -3 -0 5 9 9 9 9 8 9 9 8 8 8 8 8 8 7 5 3 5 6 6
3 2 1 1 2 2 2 2 3 2 2 2 2 3 4 5 6 2 -0 1 1 1 2 2 3 5 7 7 7 7 7 7 7 7 6 7 6 6 5 4 3 1 1
2 2 1 1 2 2 2 2 2 2 2 2 3 3 3 4 4 2 1 2 3 3 3 4 5 5 6 5 7 7 6 6 6 5 5 5 5 3 3 2 -0 -0 1
2 1 1 1 1 1 1 1 1 1 2 2 2 3 3 3 3 2 2 2 2 2 3 3 3 2 3 4 6 6 6 5 4 3 3 3 3 2 1 -0 1 1 1
1 1 1 1 1 0 -0 1 1 0 0 0 1 2 2 3 3 3 3 3 3 3 3 3 4 4 5 5 4 5 4 3 2 1 1 -0 -0 1 1 1 1 1 0
1 1 0 0 -0 -1 -0 0 -0 -0 -0 0 1 1 1 2 2 2 2 3 3 3 3 2 3 3 3 4 2 2 1 1 1 0 0 0 0 1 0 -0 -0 -1 -1
1 0 0 -0 -1 -1 -1 -1 -1 -0 -0 -0 0 1 1 1 1 2 2 2 2 1 2 2 2 2 2 0 -1 -1 -1 -1 -1 -1 -0 -1 -1 -1 -2 -2 -1 -2 -12
1 0 -0 -1 -1 -1 -1 -1 -0 -0 -1 -0 -0 0 1 1 1 1 1 1 1 1 0 0 -0 -0 -1 -1 -1 -1 -1 -1 -1 -1 -2 -2 -2 -1 -6 -13 -20 -22 -23
1 -0 -1 -1 -1 -1 -1 -1 -1 -1 -0 -0 -0 -0 -0 -0 -0 -0 -0 -0 -0 -0 -1 -1 -1 -1 -1 -2 -2 -2 -2 -2 -2 -2 -2 -10 -18 -20 -22 -26 -26 -18 -12
1 -0 -0 -1 -1 -1 -1 -1 -1 -1 -1 -1 -1 -1 -1 -1 -1 -1 -1 -1 -1 -2 -2 -2 -2 -2 -2 -2 -2 -1 -3 -12 -18 -19 -19 -23 -28 -30 -26 -23 -9 -7 -8
1 1 0 -0 -0 -0 -1 -1 -1 -1 -1 -1 -1 -1 -2 -2 -2 -2 -2 -2 -2 -2 -2 -3 -5 -7 -10 -18 -20 -20 -18 -20 -21 -23 -24 -24 -22 -20 -18 -15 -12 -10 -13
1 1 1 1 0 0 -0 -1 -1 -1 -1 -1 -1 -1 -2 -2 -2 -2 -3 -5 -9 -14 -16 -17 -18 -18 -18 -20 -21 -24 -27 -28 -26 -22 -20 -18 -21 -21 -20 -18 -16 -19 -21
2 2 1 1 1 0 -0 -2 -2 -2 -2 -3 -5 -7 -9 -12 -13 -14 -15 -16 -17 -18 -20 -20 -20 -21 -22 -24 -26 -27 -25 -23 -22 -21 -22 -20 -19 -20 -21 -22 -23 -22 -22
1 1 1 1 0 -1 -1 -2 -4 -6 -7 -10 -13 -15 -14 -15 -15 -16 -18 -20 -20 -21 -21 -22 -23 -25 -27 -27 -25 -22 -20 -19 -16 -12 -14 -20 -21 -22 -22 -22 -21 -21 -19
1 1 1 1 0 -1 -2 -3 -5 -7 -10 -14 -15 -15 -15 -15 -17 -19 -20 -21 -22 -23 -24 -25 -27 -28 -23 -24 -25 -24 -22 -20 -16 -20 -19 -19 -19 -19 -19 -19 -19 -15 -12
2 1 1 1 1 -1 -2 -3 -6 -8 -10 -14 -15 -15 -16 -16 -18 -20 -21 -22 -22 -23 -25 -28 -29 -29 -27 -25 -24 -23 -22 -21 -20 -19 -17 -16 -16 -16 -16 -16 -14 -11 -11
Wind_Speed
15 10 11 13 14 15 17 18 20 21 22 24 24 30 34 31 32 33 32 24 26 25 28 29 27 28 29 31 28 26 27 27 24 21 20 20 20 21 20 19 21 20 20
14 9 7 7 9 15 16 17 18 21 25 28 28 28 34 39 38 37 39 37 37 33 31 34 33 32 32 32 32 31 32 32 31 29 19 12 18 24 25 23 23 23 23
8 5 2 1 2 5 11 18 23 23 24 26 27 29 26 28 30 36 40 43 43 40 34 35 36 36 36 36 36 35 36 37 35 33 24 10 12 13 19 27 27 26 27
6 3 1 3 5 5 4 5 9 15 23 28 26 26 27 30 31 29 29 33 35 37 36 37 38 39 41 41 40 39 40 39 40 34 36 29 14 11 10 18 28 28 28
3 1 3 5 6 8 8 9 9 10 12 16 23 30 30 28 27 28 28 28 29 39 37 36 38 42 43 43 42 41 43 42 43 41 39 40 36 29 20 15 19 25 29
1 1 4 6 6 9 10 12 12 12 13 15 16 19 26 23 25 26 25 26 27 29 33 33 36 39 41 45 46 44 44 44 44 45 42 43 42 43 37 28 21 23 23
1 3 5 7 8 10 11 12 12 13 13 13 13 12 16 22 25 25 25 24 24 24 30 31 31 36 38 40 42 43 47 47 45 48 47 45 45 43 36 38 27 23 24
2 4 6 8 9 9 10 11 11 11 10 11 12 13 12 13 15 21 27 24 24 24 24 29 32 32 34 36 37 38 43 47 46 45 52 50 45 45 41 44 36 28 27
4 5 7 9 9 9 9 9 10 10 10 11 11 10 11 12 15 16 16 17 20 25 23 22 27 28 28 32 35 38 38 42 45 46 47 51 50 48 45 43 38 32 25
5 6 7 8 8 8 8 9 9 10 12 12 11 10 11 12 14 17 16 18 21 21 16 25 27 25 26 27 31 34 38 40 41 41 42 44 49 50 43 40 34 29 26
5 7 7 7 6 7 8 9 9 11 12 13 12 11 10 9 11 13 17 20 22 23 24 23 23 22 24 25 26 30 35 37 38 39 39 40 39 41 40 37 35 39 35
5 7 8 8 7 8 8 8 9 10 10 11 10 9 9 8 8 11 11 14 16 18 20 21 22 21 19 21 21 23 27 30 34 35 34 32 34 34 34 35 29 25 24
4 6 6 6 7 9 8 8 9 10 9 8 8 9 9 8 8 10 10 11 10 9 10 13 14 13 15 17 18 20 23 24 28 30 31 29 29 27 27 23 20 16 18
4 5 5 6 7 9 8 8 7 10 10 9 7 7 6 7 9 10 12 12 11 11 9 10 13 15 17 16 18 20 19 21 22 22 21 20 19 18 17 16 17 18 17
5 5 5 6 7 7 7 10 10 10 10 9 8 6 5 5 7 8 9 10 11 11 11 11 11 10 11 13 12 14 15 14 14 14 12 11 10 11 13 14 15 15 16
4 5 5 6 8 9 10 9 8 7 6 6 5 3 3 6 7 9 11 10 9 8 8 7 7 8 9 11 10 9 8 6 6 8 9 9 10 10 15 14 12 14 13
2 3 5 7 7 8 7 6 5 6 5 4 5 4 6 7 7 7 6 5 6 7 6 6 6 6 7 6 5 4 4 5 7 8 8 8 9 9 11 9 9 11 11
2 2 3 3 4 5 4 4 3 4 4 5 6 7 8 6 6 6 5 6 7 7 8 10 10 8 8 7 5 4 4 5 5 4 4 4 6 7 6 7 7 9 11
4 2 3 5 7 6 5 6 6 6 6 8 9 9 9 9 9 9 10 11 11 12 12 12 10 7 7 5 4 3 1 1 1 2 4 3 4 6 9 9 10 10 9
6 5 6 9 8 9 9 10 11 10 12 13 14 15 15 14 14 15 15 15 14 14 12 10 9 7 6 5 3 2 4 4 4 3 3 6 9 9 8 8 7 10 11
9 8 8 8 9 10 10 11 13 14 15 15 16 17 17 17 16 16 15 14 13 11 9 8 8 8 6 6 5 5 5 4 5 6 8 10 9 9 9 11 11 13 14
11 8 8 6 7 8 8 10 12 13 12 13 13 13 14 14 13 11 12 11 10 8 8 7 6 6 6 7 7 7 6 7 8 8 9 11 13 13 13 12 13 15 15
12 10 8 8 6 6 6 7 9 10 9 9 10 9 9 10 10 8 8 7 6 6 5 5 5 6 7 8 9 10 10 12 11 12 13 14 13 13 13 13 11 10 9
14 13 11 9 8 7 7 7 8 8 7 6 7 7 6 7 6 6 5 4 4 3 4 6 7 9 10 10 10 11 11 12 11 12 12 13 14 14 12 11 9 8 8
17 16 14 12 10 9 8 8 8 7 6 5 5 5 4 4 3 2 2 2 3 4 6 7 8 8 9 11 12 13 12 12 13 15 13 12 11 11 10 9 8 8 9
23 20 17 16 14 12 11 11 10 8 7 6 5 5 4 3 2 1 1 2 5 6 8 8 9 10 11 12 13 14 13 13 13 13 10 11 11 11 10 10 9 10 11
Wind_Direction
253 247 261 260 256 250 247 245 245 240 239 236 236 249 259 256 250 249 244 232 241 236 236 238 229 222 221 236 233 229 233 229 225 228 233 240 245 239 236 234 238 238 237
254 254 262 263 260 256 250 249 246 245 243 243 237 245 259 259 256 253 248 244 246 247 239 246 241 237 235 226 236 235 231 233 230 229 230 234 248 248 239 236 235 237 242
214 197 210 350 22 285 259 252 247 243 241 243 244 239 246 254 261 255 254 251 248 245 240 244 242 237 239 239 240 241 238 238 233 229 222 206 222 241 242 234 236 233 238
155 156 127 1 360 332 324 305 278 263 254 249 246 239 241 242 243 246 260 263 258 250 239 243 244 242 242 239 246 246 245 240 241 232 230 226 212 204 218 237 234 234 235
146 103 9 353 344 321 315 308 305 303 285 270 256 251 246 245 249 250 254 249 259 262 257 242 241 246 247 247 244 244 247 245 243 241 235 230 230 232 227 231 236 234 237
120 6 340 338 329 321 312 305 298 294 293 289 284 263 251 243 248 249 250 250 253 257 264 256 243 245 248 251 253 248 249 250 243 244 239 241 236 234 232 230 238 245 244
237 318 326 328 324 318 312 307 301 294 289 284 280 282 269 251 244 249 255 256 256 260 266 265 258 246 246 245 258 251 249 251 246 242 242 240 241 243 247 243 238 235 236
300 318 326 329 321 316 316 312 311 313 308 292 279 272 272 270 264 255 248 250 253 260 264 274 272 261 252 249 245 248 247 252 251 248 246 245 244 244 247 249 233 226 228
307 318 324 322 320 316 319 317 314 314 307 307 298 297 284 279 269 265 263 260 259 252 252 257 271 270 262 251 250 248 244 248 253 251 249 248 247 246 249 244 242 237 228
297 305 313 317 321 317 318 317 314 312 308 304 302 304 306 297 287 282 284 266 261 272 261 264 252 257 262 260 252 253 249 249 259 258 253 251 252 250 248 237 235 236 235
300 307 314 316 317 322 329 324 321 308 305 302 304 296 305 315 302 289 279 275 277 276 269 261 261 256 257 261 261 258 256 254 257 257 257 257 258 254 248 242 241 254 247
311 319 317 318 319 310 313 325 325 324 321 314 310 303 291 307 328 312 319 300 286 285 281 272 264 263 262 266 270 270 266 263 259 260 257 255 252 250 245 241 249 235 230
308 316 310 312 323 312 314 325 335 331 320 322 319 307 298 280 286 298 312 320 314 307 306 291 283 277 279 277 275 272 268 263 261 259 256 251 248 246 241 235 226 240 250
323 314 310 313 322 330 326 311 321 326 320 319 320 327 326 304 291 290 293 292 300 301 309 321 316 284 276 276 278 271 268 267 262 257 254 248 241 236 233 235 244 250 253
319 319 319 315 321 324 322 313 320 334 331 328 322 310 318 329 328 325 322 314 298 301 302 302 304 306 311 302 288 283 278 271 261 242 230 221 221 232 242 247 244 248 251
335 331 315 339 344 327 321 323 330 337 343 351 349 344 349 5 360 345 334 337 329 310 305 319 338 334 334 321 320 310 288 255 211 209 203 210 219 224 244 240 242 249 253
360 333 356 339 329 331 335 350 6 355 16 31 34 26 27 19 6 346 341 352 18 20 21 28 24 9 8 25 53 84 137 160 172 193 196 201 215 228 238 261 271 282 289
107 14 348 2 10 3 25 38 36 44 58 61 61 61 55 53 51 47 48 55 61 63 60 57 50 55 82 66 77 117 166 182 181 216 222 246 258 278 297 292 283 276 274
146 188 117 80 61 62 67 78 74 71 76 79 76 75 77 82 81 82 80 76 72 75 72 67 61 67 86 87 98 92 98 28 279 258 300 321 295 284 285 285 290 292 291
164 159 119 93 87 88 84 85 87 89 85 82 83 87 87 86 88 85 85 85 82 78 76 76 74 67 65 68 57 8 23 18 17 336 307 295 290 293 281 269 277 274 265
170 159 115 109 106 97 96 94 94 91 89 91 91 92 92 91 87 86 85 83 78 73 71 66 67 67 72 65 46 31 17 343 317 306 306 305 302 292 278 277 269 270 275
180 166 147 136 125 116 108 105 101 97 96 94 93 91 92 91 89 84 83 79 76 74 68 63 57 46 29 5 352 344 331 314 308 301 298 294 300 295 291 289 281 285 286
189 185 171 170 156 146 133 125 115 110 105 101 95 94 94 96 98 94 90 86 76 59 42 25 4 351 339 332 326 325 324 321 317 306 303 299 297 294 293 288 285 282 282
198 195 189 190 182 172 157 141 134 127 125 126 122 116 110 106 106 104 102 91 69 29 3 348 339 333 331 324 321 319 318 316 313 307 305 303 300 301 301 296 292 288 282
207 204 200 201 202 185 175 172 168 158 157 161 154 141 135 127 121 108 90 40 3 341 328 321 317 314 311 305 304 301 298 297 294 305 303 306 308 307 304 301 299 295 292
215 212 209 210 208 204 195 193 191 185 182 190 188 182 178 180 196 235 315 316 323 322 322 316 311 309 300 299 301 303 306 308 305 308 306 297 295 297 293 293 293 288 290
Height
1492 1493 1494 1495 1496 1496 1498 1500 1502 1504 1506 1506 1507 1505 1504 1507 1509 1511 1514 1517 1517 1518 1518 1519 1521 1523 1524 1522 1525 1527 1527 1529 1531 1533 1533 1533 1534 1535 1535 1536 1536 1537 1537
1489 1490 1491 1491 1490 1490 1492 1494 1495 1497 1498 1499 1501 1501 1499 1499 1500 1502 1505 1509 1509 1510 1512 1512 1513 1514 1516 1517 1518 1519 1521 1522 1523 1524 1528 1529 1529 1528 1529 1531 1531 1532 1532
1487 1489 1490 1489 1487 1486 1486 1487 1488 1489 1491 1493 1494 1494 1496 1495 1494 1494 1495 1498 1501 1503 1505 1505 1507 1508 1509 1509 1510 1513 1514 1515 1516 1518 1521 1523 1522 1521 1522 1524 1525 1527 1527
1486 1488 1488 1487 1486 1484 1483 1484 1483 1483 1484 1486 1486 1487 1488 1490 1490 1491 1491 1491 1492 1493 1496 1498 1498 1500 1501 1501 1502 1503 1506 1509 1509 1512 1513 1514 1515 1516 1518 1518 1519 1520 1521
1486 1487 1486 1485 1485 1483 1482 1481 1481 1480 1480 1479 1479 1480 1481 1484 1486 1486 1487 1488 1486 1485 1488 1490 1492 1491 1492 1493 1495 1496 1496 1498 1501 1503 1504 1507 1509 1510 1511 1511 1512 1512 1514
1485 1485 1485 1484 1484 1481 1480 1479 1478 1478 1477 1476 1475 1474 1475 1478 1480 1481 1481 1482 1481 1480 1479 1481 1484 1484 1485 1486 1486 1488 1488 1489 1493 1494 1496 1497 1497 1499 1503 1504 1505 1507 1506
1484 1483 1483 1482 1481 1478 1477 1476 1475 1474 1473 1473 1472 1472 1471 1472 1473 1475 1476 1477 1477 1476 1474 1474 1475 1477 1478 1479 1480 1480 1480 1480 1483 1484 1485 1488 1489 1492 1497 1499 1498 1498 1499
1481 1481 1481 1480 1479 1477 1475 1473 1472 1470 1469 1469 1467 1467 1468 1467 1467 1468 1469 1469 1471 1472 1472 1469 1468 1469 1471 1472 1473 1473 1473 1474 1475 1478 1478 1480 1482 1484 1485 1486 1488 1490 1492
1479 1479 1478 1478 1476 1474 1473 1472 1470 1468 1467 1466 1464 1464 1463 1463 1462 1462 1462 1463 1464 1464 1465 1465 1462 1461 1463 1464 1466 1465 1466 1465 1467 1468 1471 1473 1475 1476 1478 1480 1481 1484 1484
1478 1477 1476 1475 1473 1471 1470 1469 1467 1465 1463 1462 1461 1460 1459 1459 1458 1457 1457 1457 1457 1457 1459 1457 1458 1457 1457 1458 1458 1458 1458 1458 1458 1460 1461 1462 1464 1468 1469 1469 1471 1476 1481
1476 1475 1473 1473 1471 1468 1466 1465 1463 1461 1460 1458 1457 1457 1457 1456 1454 1453 1452 1452 1451 1450 1450 1450 1451 1451 1452 1452 1453 1453 1452 1453 1453 1453 1454 1455 1457 1458 1459 1460 1462 1462 1467
1472 1471 1470 1470 1468 1464 1462 1462 1460 1459 1456 1454 1454 1454 1453 1453 1453 1450 1448 1447 1446 1446 1445 1444 1443 1444 1446 1446 1447 1448 1448 1448 1448 1449 1449 1450 1451 1452 1454 1456 1457 1462 1464
1471 1470 1470 1468 1465 1461 1459 1458 1457 1455 1453 1452 1451 1450 1449 1449 1448 1447 1446 1445 1445 1444 1442 1442 1441 1439 1441 1442 1442 1442 1442 1443 1442 1443 1444 1444 1446 1448 1451 1453 1458 1460 1463
1469 1469 1467 1466 1463 1459 1457 1456 1454 1453 1451 1450 1448 1447 1446 1445 1444 1443 1443 1443 1443 1442 1441 1440 1439 1438 1440 1439 1439 1439 1438 1438 1437 1439 1441 1441 1443 1446 1450 1453 1455 1457 1459
1467 1466 1464 1463 1461 1459 1456 1452 1451 1451 1449 1447 1445 1445 1444 1443 1442 1441 1441 1440 1439 1440 1440 1438 1437 1437 1435 1435 1436 1434 1435 1435 1436 1438 1440 1443 1445 1448 1451 1450 1451 1453 1456
1464 1463 1463 1459 1457 1454 1452 1451 1450 1449 1447 1445 1445 1443 1443 1442 1440 1440 1440 1440 1438 1438 1437 1436 1435 1434 1433 1433 1434 1433 1435 1436 1437 1439 1441 1443 1445 1441 1448 1452 1448 1450 1452
1463 1462 1459 1456 1455 1453 1451 1450 1449 1449 1447 1446 1444 1442 1441 1441 1440 1440 1440 1439 1438 1438 1436 1435 1436 1433 1434 1434 1434 1436 1439 1439 1439 1441 1441 1443 1445 1445 1451 1449 1446 1447 1449
1461 1461 1458 1457 1454 1453 1452 1451 1450 1449 1448 1446 1445 1442 1440 1440 1441 1442 1441 1440 1439 1438 1439 1438 1437 1435 1436 1439 1440 1440 1441 1441 1441 1442 1443 1444 1445 1444 1444 1444 1445 1446 1447
1459 1459 1457 1456 1454 1454 1453 1451 1450 1450 1450 1447 1445 1443 1442 1442 1442 1443 1442 1442 1442 1441 1440 1441 1441 1441 1441 1443 1444 1444 1444 1444 1444 1444 1443 1443 1443 1443 1443 1443 1443 1444 1445
1458 1459 1457 1456 1456 1455 1454 1453 1451 1451 1450 1449 1448 1446 1445 1445 1446 1446 1446 1445 1445 1445 1445 1445 1446 1445 1445 1445 1445 1445 1444 1445 1444 1444 1444 1444 1443 1443 1443 1443 1443 1443 1444
1458 1458 1456 1457 1457 1456 1456 1455 1454 1454 1453 1452 1451 1450 1449 1449 1450 1450 1449 1449 1449 1450 1449 1449 1448 1448 1447 1447 1446 1446 1446 1446 1445 1445 1444 1442 1442 1441 1440 1439 1440 1439 1439
1457 1458 1457 1458 1458 1458 1458 1457 1456 1456 1457 1456 1455 1455 1454 1453 1453 1454 1453 1453 1453 1452 1452 1451 1451 1450 1449 1448 1447 1447 1447 1446 1445 1444 1443 1441 1440 1439 1438 1437 1436 1435 1434
1456 1457 1457 1458 1458 1458 1458 1458 1458 1458 1459 1459 1458 1458 1458 1457 1457 1457 1456 1455 1455 1454 1453 1453 1452 1451 1450 1449 1448 1447 1446 1444 1443 1442 1441 1439 1438 1436 1435 1434 1432 1431 1430
1453 1455 1455 1456 1456 1457 1458 1459 1460 1460 1460 1461 1461 1461 1461 1460 1460 1459 1458 1457 1456 1455 1454 1453 1452 1450 1449 1448 1446 1445 1444 1443 1442 1440 1438 1437 1435 1433 1432 1430 1430 1429 1428
1450 1452 1453 1454 1455 1456 1457 1459 1460 1460 1461 1462 1462 1461 1462 1461 1461 1460 1459 1457 1456 1456 1454 1453 1452 1450 1449 1447 1446 1444 1443 1441 1440 1438 1436 1434 1433 1431 1430 1428 1428 1428 1427
1445 1448 1449 1451 1453 1454 1455 1458 1459 1460 1460 1461 1462 1462 1462 1462 1462 1461 1459 1458 1456 1455 1454 1452 1451 1449 1447 1445 1443 1441 1440 1439 1437 1435 1433 1432 1431 1429 1428 1427 1426 1425 1425